Location: Champs
(48.8539°N, 2.6040°E)
Time: 18:43:59
(UTC+00:00)

ATLAS CENTAUR R/B - Pass Details

Date: 05 June 2022
Orbit: 443 x 688 km, 64.6° (Epoch: 07 June)

Event Time Altitude Azimuth Distance (km) Brightness Sun altitude
Rises 20:51:03 0° 316° (NW) 3,054 7.6 -8.4°
Reaches altitude 10° 20:53:34 10° 308° (NW) 2,119 5.9 -8.6°
Maximum altitude 20:58:00 38° 242° (WSW) 1,012 2.8 -9.1°
Drops below altitude 10° 21:02:14 10° 174° (S) 2,006 3.7 -9.5°
Enters shadow 21:02:33 - 173° (S) 2,123 3.8 -9.6°
